Regional Weather Roundup
Issued by NWS Upton, NY

Current Version | Previous Version | Text Only | Print | Product List | Glossary On
Versions: 1 2 3 4 5 6 7 8 9 10 11 12 13 14 15 16 17 18 19 20 21 22 23 24 25 26 27 28 29 30 31 32 33 34 35 36 37 38 39 40 41 42 43 44 45 46 47 48 49 50
060 ASUS41 KOKX 292308 RWROKX REGIONAL WEATHER ROUNDUP NATIONAL WEATHER SERVICE NEW YORK NY 700 PM EDT WED MAR 29 2017 NOTE: "FAIR" INDICATES FEW OR NO CLOUDS BELOW 12,000 FEET WITH NO SIGNIFICANT WEATHER AND/OR OBSTRUCTIONS TO VISIBILITY. NYZ071-072-176-178-NJZ106-104-300000- NEW YORK CITY METRO AREA CITY SKY/WX TMP DP RH WIND PRES REMARKS Central Park CLEAR 53 25 33 MISG 30.14R Wall St Helipt CLEAR 55 28 35 CALM 30.13R LaGuardia APRT CLEAR 54 24 31 N18 30.11R Kennedy INTL PTCLDY 53 25 33 NW23G31 30.12R Breezy Point N/A 52 N/A N/A N14G23 N/A Newark/Liberty PTCLDY 54 23 30 NW20 30.12R Teterboro CLEAR 52 26 36 N8G21 30.11R $$ NYZ177-179-078>081-300000- LONG ISLAND NEW YORK CITY SKY/WX TMP DP RH WIND PRES REMARKS Jones Beach N/A 52 N/A N/A N17 N/A Matinecock PT N/A 50 N/A N/A N23 N/A Farmingdale CLEAR 52 25 35 N21G28 30.10R MacArthur/ISP PTCLDY 50 27 40 N18G24 30.09R Shirley CLEAR 48 30 49 VRB6 30.11R Westhampton CLEAR 48 28 46 N14G20 30.11R East Hampton N/A 47 28 49 NW10G20 30.09R Montauk N/A 46 32 58 NW14 30.09R $$ NYZ052-065-067-300000- HUDSON VALLEY CITY SKY/WX TMP DP RH WIND PRES REMARKS White Plains PTCLDY 49 24 37 N16G24 30.11R Newburgh CLEAR 50 27 40 N9G21 30.13R Montgomery CLEAR 49 23 36 NW14 30.12R Poughkeepsie CLEAR 47 23 38 N13 30.13R Albany CLOUDY 43 21 41 N16G23 30.20R $$ NJZ001-105-106-008-010-013-015-019>022-104-300000- NEW JERSEY CITY SKY/WX TMP DP RH WIND PRES REMARKS Newark/Liberty PTCLDY 54 23 30 NW20 30.12R Teterboro CLEAR 52 26 36 N8G21 30.11R Caldwell CLEAR 52 24 33 NW9 30.13R Somerville CLEAR 54 24 31 NW12 30.11R Linden N/A 54 24 31 N16G22 30.12R Sussex CLEAR 49 23 36 VRB7G16 30.15R Andover N/A 49 23 36 N8G17 30.14R Trenton CLEAR 54 27 35 N13G22 30.11R Millville CLEAR 58 34 40 N12 30.09R Atlantic City CLEAR 50 39 66 S7 30.10R Wrightstown CLEAR 55 30 37 N14 30.08R Toms River CLEAR 56 31 38 NW8 30.10R Belmar CLEAR 55 27 34 N12 30.11R $$ PAZ047>061-062-071-300000- EASTERN PENNSYLVANIA CITY SKY/WX TMP DP RH WIND PRES REMARKS Philadelphia CLEAR 57 28 33 N16G24 30.12R Allentown CLEAR 52 26 36 N16G24 30.14R Scranton CLEAR 47 27 45 N12G26 30.17R $$ CTZ002-004>006-009-010-012-RIZ004-006-007-MAZ004-011-015-300000- SOUTHERN NEW ENGLAND IN CT CITY SKY/WX TMP DP RH WIND PRES REMARKS Bradley INTL MOCLDY 44 24 45 N10 30.13R Hartford MOCLDY 45 25 45 N14 30.13R Danbury CLEAR 47 23 38 N12 30.13R Wtrbury/Oxford PTCLDY 45 23 42 N16 30.12R Bridgeport CLEAR 51 23 33 NW14G26 30.11R Meriden MOCLDY 48 28 46 NW15 30.12R New Haven CLEAR 48 25 40 N16G25 30.11R Chester NOT AVBL Groton MOCLDY 48 27 44 N16G25 30.09R Wilimantic MOCLDY 45 28 51 N10 30.12R IN RI CITY SKY/WX TMP DP RH WIND PRES REMARKS Providence CLOUDY 44 23 43 N21G30 30.10R Block Island CLOUDY 43 38 82 SW7 30.09R Westerly MOCLDY 48 29 47 N12 30.10R IN MA CITY SKY/WX TMP DP RH WIND PRES REMARKS Boston MOCLDY 43 24 47 NW21G29 30.09R Worcester CLOUDY 38 22 52 NW9 30.09R WCI 31 Westfield PTCLDY 43 23 45 N14G28 30.12R Provincetown CLOUDY 41 32 70 NW15G21 30.06R Nantucket CLOUDY 42 33 70 N15 30.04R $$ ANZ330-335-338-340-345-350-353-355-300000- COASTAL MARINE OBSERVATIONS STATION/POSITION TIME SKY/WX TEMP WIND PRES VSBY WAVE AIR SEA DIR/SP/G HT/PER (UTC) (F) (DEG/KT/KT) (MB) (MI) (FT/S) NY HARB ENTRANCE 2150 50 44 320/ 12/ 14 1018.0 2/ 9 20 S FIRE ISLAND 2250 46 43 CALM / 2 1018.4 3/ 9 GREAT SOUTH BAY NOT AVBL 23 SSW MONTAUK P 2150 45 43 1017.8 3/ 8 15 E BARNEGAT LI 2230 45 N/A 3/15 HUDSON CANYON 2150 45 43 250/ 4/ 4 1018.1 4/10 KINGS POINT 2230 50 41 1019.1 EXECUTION ROCKS NOT AVBL CENTRAL LI SOUND 2215 46 340/ 16/ 19 N/A 2/ 3 EASTERN LI SOUND NOT AVBL ROBBINS REEF 2230 54 340/ 16/ 20 1019.5 $$ >>>>>>>>>>>>>>>>>>>>>>>>>>>> KEY <<<<<<<<<<<<<<<<<<<<<<<<<<< > < > SKY/WX - Sky Condition/Present Weather < > TMP - Temperature in Fahrenheit < > DP - Dew Point in Fahrenheit < > RH - Relative Humidity in Percent < > WIND - Direction (from) and Speed in MPH < > PRES - Mean Sea Level Pressure (inches of Hg) < > WCI - Wind Chill Index < > VSB - VISIBILITY IN MILES < > HX - HEAT INDEX < > TC - TEMPERATURE IN CELSIUS < > VRB - VARIABLE WIND DIRECTION < > < >>>>>>>>>>>>>>>>>>>>>>>>>>>> KEY <<<<<<<<<<<<<<<<<<<<<<<<<<<

USA.gov is the U.S. government's official web portal to all federal, state and local government web resources and services.